Flag for Macedonia, Republic of Weather past 2 weeks in Skopje, Macedonia, Republic of

Now
57 °F

Overcast.


Feels Like: 54 °F
Forecast: 52 / 65 °F
Wind: 14 mph from North

Location: Skopje-Petrovec

Current Time: May 28, 2015 at 12:36:27 AM

Latest Report: May 28, 2015 at 12:00 AM


Visibility: N/A

Pressure: 29.95 "Hg

Humidity: 63%

Dew point: 45 °F

Location of SkopjeLocation

Historic Weather in Skopje — Graph

°F

Skopje temperature yesterday

Maximum temperature yesterday: 70 °F (at 11:00 AM)
Minimum temperature yesterday: 57 °F (at 4:00 AM)
Average temperature yesterday: 63 °F

Past Weeks' High & Low Weather Summary

 TemperatureHumidityPressure
High84 °F (May 14, 5:00 PM)100% (May 13, 4:30 AM)30.21 "Hg (May 13, 4:30 AM)
Low45 °F (May 13, 4:30 AM)28% (May 13, 3:00 PM)29.71 "Hg (May 26, 5:30 PM)
Average67 °F66%29.91 "Hg
* Reported May 12 11:00 PM — May 27 11:30 PM, Skopje, Weather by CustomWeather, © 2015

Note: Actual official high and low records may vary slightly from our data, if they occured in-between our weather recording intervals... More about our weather records

Advertising

Skopje weather history for previous 24 hours

 ConditionsComfort  
Time TempWeatherWind HumidityBarometerVisibility
11:30 PM
Wed, May 27
57 °FOvercast.17 mph63%29.95 "HgN/A
10:30 PM57 °FMostly cloudy.9 mph63%29.95 "HgN/A
10:00 PM59 °FOvercast.16 mph59%29.95 "HgN/A
9:30 PM59 °FOvercast.15 mph59%29.95 "HgN/A
9:00 PM57 °FPassing clouds.16 mph67%29.92 "HgN/A
8:30 PM59 °FPartly sunny.21 mph63%29.92 "HgN/A
8:00 PM59 °FPartly sunny.18 mph63%29.89 "HgN/A
7:30 PM59 °FScattered clouds.23 mph63%29.89 "HgN/A
7:00 PM61 °FBroken clouds.23 mph59%29.86 "HgN/A
6:30 PM61 °FBroken clouds.26 mph59%29.86 "HgN/A
6:00 PM63 °FBroken clouds.26 mph59%29.83 "HgN/A
5:30 PM64 °FBroken clouds.25 mph56%29.83 "HgN/A
5:00 PM64 °FBroken clouds.26 mph56%29.83 "HgN/A
4:30 PM66 °FBroken clouds.24 mph56%29.80 "HgN/A
4:00 PM66 °FBroken clouds.23 mph56%29.80 "HgN/A
3:30 PM68 °FBroken clouds.20 mph56%29.80 "HgN/A
3:00 PM68 °FBroken clouds.21 mph56%29.80 "HgN/A
2:30 PM70 °FBroken clouds.20 mph50%29.80 "HgN/A
2:00 PM68 °FBroken clouds.22 mph53%29.80 "HgN/A
1:30 PM68 °FBroken clouds.17 mph53%29.80 "HgN/A
1:00 PM70 °FBroken clouds.22 mph50%29.80 "HgN/A
12:30 PM70 °FBroken clouds.14 mph50%29.77 "HgN/A
12:00 PM70 °FBroken clouds.13 mph50%29.80 "HgN/A
11:30 AM70 °FBroken clouds.8 mph46%29.77 "HgN/A
11:00 AM70 °FBroken clouds.3 mph50%29.80 "HgN/A
10:30 AM68 °FBroken clouds.5 mph49%29.80 "HgN/A
10:00 AM68 °FPartly sunny.5 mph53%29.80 "HgN/A
9:30 AM68 °FPartly sunny.5 mph56%29.80 "HgN/A
9:00 AM66 °FPartly sunny.3 mph60%29.80 "HgN/A
8:30 AM64 °FPartly sunny.2 mph73%29.80 "HgN/A
8:00 AM63 °FPartly sunny.1 mph77%29.80 "HgN/A
7:30 AM59 °FScattered clouds.1 mph94%29.80 "HgN/A
7:00 AM59 °FScattered clouds.1 mph88%29.80 "HgN/A
6:30 AM57 °FScattered clouds.No wind94%29.77 "HgN/A
6:00 AM57 °FPassing clouds.No wind94%29.77 "HgN/A
5:00 AM57 °FPassing clouds.1 mph88%29.77 "HgN/A
4:00 AM57 °FPassing clouds.1 mph94%29.77 "HgN/A
3:30 AM59 °FPassing clouds.1 mph88%29.77 "HgN/A
3:00 AM59 °FPassing clouds.1 mph88%29.77 "HgN/A
2:30 AM59 °FPassing clouds.5 mph82%29.77 "HgN/A
2:00 AM59 °FPassing clouds.3 mph82%29.77 "HgN/A
1:30 AM59 °FPassing clouds.No wind82%29.77 "HgN/A
1:00 AM59 °FPassing clouds.No wind82%29.77 "HgN/A
12:30 AM61 °FPassing clouds.7 mph72%29.77 "HgN/A
12:00 AM61 °FPassing clouds.7 mph72%29.77 "HgN/A
Weather by CustomWeather, © 2015

See weather overviewHow to use our weather pages